Find Connecta IOT-16

NORAD ID: 67390 Int'l Des: 2026-004 Owner: PLNSST Country: TR Constellation: plan-s operational
LEOCIRCULARRETROGRADESSO

当前视图

正在加载3D地球...

关于 Connecta IOT-16

正在加载描述...

即将过境

Passes for default location (London). Set your location on the main map for personalized predictions.

高度历史

Loading altitude history...

两行轨道根数

1 67390U 26004AD 26159.74249588 .00003418 00000-0 17222-3 0 9990
2 67390 97.4584 158.8146 0004633 36.4304 323.7245 15.17836155 22465
Epoch: Jun 8, 2026 • Age: 8 hours

当前状态

高度 516.0 km
速度 7.61 km/s
星下点 -13.17°S, 121.66°W
发射日期 Jan 11, 2026
运行时间 0.4 years
类型 other

技术详情

分类 Payload
质量 10.00 kg
干质量 10.00 kg
总质量 10.00 kg
长度 0.30 m
直径 0.20 m
跨度 0.30 m
形状 Box
制造商 PLNSST
平台类型 Cubesat 6U
阶段状态 In Orbit
所有者/国家 PLNSST/TR

Most Searched